Regional Weather Roundup
Issued by NWS Wakefield, VA

Home | Current Version | Previous Version | Graphics & Text | Print | Product List | Glossary On
Versions: 1 2 3 4 5 6 7 8 9 10 11 12 13 14 15 16 17 18 19 20 21 22 23 24 25 26 27
000
ASUS41 KAKQ 201514
RWRAKQ

REGIONAL WEATHER ROUNDUP
NATIONAL WEATHER SERVICE WAKEFIELD VA
1000 AM EST MON FEB 20 2017

Note: "fair" indicates few or no clouds below 12,000 feet with no
significant weather and/or obstructions to visibility. * = Denotes
station may not report precipitation (e.g., rain,snow,etc.),
thunder or fog.

VAZ042-051-052>054-056-201600-
NORTHERN VIRGINIA

CITY           SKY/WX    TMP DP  RH WIND       PRES   REMARKS
WASH NATIONAL  MOSUNNY   60  41  49 N14G22    30.25R
DULLES         MOSUNNY   57  42  57 N10       30.26R
FORT BELVOIR   SUNNY     59  41  52 N7        30.25R
QUANTICO       SUNNY     53  44  71 E6        30.26R
FREDERICKSBRG* SUNNY     57  45  63 CALM      30.25R
STAFFORD*      SUNNY     58  44  58 NW6       30.29R
WARRENTON      SUNNY     61  37  42 NW10      30.25R
CULPEPER*      MOSUNNY   59  43  55 N3        30.26R
MANASSAS*      SUNNY     60  43  53 N9        30.25R
LEESBURG*      SUNNY     59  45  58 N10G21    30.27R
WINCHESTER     CLOUDY    54  41  62 NW12      30.26R
FRONT ROYAL*   MOSUNNY   54  39  58 CALM      30.25S
LURAY*         SUNNY     50  43  76 CALM      30.26S
$$

VAZ048-049-060>072-079>083-201600-
CENTRAL AND SOUTH CENTRAL VIRGINIA

CITY           SKY/WX    TMP DP  RH WIND       PRES   REMARKS
RICHMOND       MOSUNNY   61  41  47 NE12G22   30.24R
CHESTERFIELD*  FAIR      63  32  31 NE7       30.25R
PETERSBURG*    SUNNY     60  40  48 NE12G17   30.24S
HANOVER        SUNNY     61  41  47 N9        30.26R
TAPPAHANNOCK*  SUNNY     59  33  36 N12G18    30.25S
QUINTON*       FAIR      60  43  52 N9G21     30.25R
CHARLOTTSVILLE SUNNY     63  37  38 NE5       30.23R
GORDONSVILLE*  SUNNY     58  38  46 CALM      30.24S
ORANGE*        SUNNY     57  37  47 CALM      30.26S
LOUISA*        SUNNY     63  45  51 NE6       30.24R
BUMPASS*       FAIR      57  42  57 NE3       30.25R
FARMVILLE*     SUNNY     60  42  51 CALM      30.23R
CREWE*         FAIR      58  42  55 NE6       30.24S
FORT PICKETT*  FAIR     N/A N/A N/A NE6       30.24R
CHASE CITY*    FAIR      57  40  52 CALM      30.24S
CLARKSVILLE*   FAIR      55  41  58 CALM      30.24S
SOUTH HILL*    SUNNY     58  43  57 NE5       30.30R
LAWRENCEVILLE* FAIR      59  41  50 MISG      30.23S
EMPORIA*       SUNNY     59  41  51 N7        30.25R
$$

VAZ088>098-201600-
SOUTHEAST VIRGINIA

CITY           SKY/WX    TMP DP  RH WIND       PRES   REMARKS
NORFOLK        SUNNY     58  42  55 N13       30.22R
VIRGINIA BEACH MOSUNNY   59  43  55 N14       30.21R
NORFOLK NAVAL  MOSUNNY   62  41  46 N10       30.24R
WEST POINT*    SUNNY     60  40  47 N9        30.26R
SALUDA*        FAIR      58  44  60 N9        30.23S
NEWPORT NEWS   SUNNY     63  40  42 N12       30.23R
LANGLEY AFB    SUNNY     60  41  50 N13       30.22R
FORT EUSTIS    SUNNY     63  40  43 N8G16     30.22R
WILLIAMSBURG*  SUNNY     63  43  48 N7        30.25R
HR EXEC AP*    FAIR      63  43  48 N6        30.22R
FRANKLIN*      SUNNY     62  38  41 NE13      30.23R
US460-WAKEFLD  SUNNY     62  39  42 NE8G17    30.23R
$$

VAZ020-022-025-037-045-201600-
WEST CENTRAL AND SOUTHWEST VIRGINIA

CITY           SKY/WX    TMP DP  RH WIND       PRES   REMARKS
STAUNTON*      SUNNY     49  38  66 CALM      30.28S
WAYNESBORO*    SUNNY     52  38  58 CALM      30.25S
HOT SPRINGS VA CLOUDY    52  10  19 NW9       30.27R
LYNCHBURG      MOSUNNY   59  35  40 NE3       30.25R
DANVILLE       MOSUNNY   54  44  69 CALM      30.25R
SOUTH BOSTON*  FAIR      57  39  50 CALM      30.25S
MARTINSVILLE   SUNNY     57  42  56 CALM      30.27S
ROANOKE        SUNNY     56  40  55 CALM      30.27R
BLACKSBURG     SUNNY     52  44  74 W3        30.30R
DUBLIN*        SUNNY     54  46  72 SW6       30.28R
MARION*        SUNNY     54  47  77 CALM      30.28F
HILLSVILLE*    SUNNY     51  44  79 CALM      30.26F
RICHLANDS*     FAIR      53  44  72 NE7       30.26F
WISE*          SUNNY     55  41  58 CALM      30.27S
ABINGDON*      SUNNY     52  48  85 E9        30.25F
$$

MDZ021>025-VAZ099-100-201600-
SOUTHERN MARYLAND AND THE DELMARVA PENINSULA

CITY           SKY/WX    TMP DP  RH WIND       PRES   REMARKS
PATUXENT RIVER SUNNY     57  43  59 N7        30.23R
BAY BRIDGE APT SUNNY     54  36  50 N6        30.25R
LEONARDTOWN    SUNNY     57  39  51 NW8       30.25R
DOVER          SUNNY     54  39  56 N16       30.22R
GEORGETOWN     SUNNY     56  35  45 N12       30.22S
EASTON         SUNNY     57  34  41 NE9       30.26S
CAMBRIDGE      NOT AVBL
SALISBURY      SUNNY     57  35  43 N14       30.21R
OCEAN CITY     SUNNY     56  36  47 NE15      30.21S
WALLOPS ISLAND SUNNY     58  39  49 N9        30.22R
ACCOMACK*      SUNNY     57  43  59 N7        30.21S
$$

NCZ012>017-030>032-201600-
NORTH CENTRAL AND EASTERN NORTH CAROLINA

CITY           SKY/WX    TMP DP  RH WIND       PRES   REMARKS
ROANOKE RAPIDS FAIR      61  39  44 NE7       30.24R
RALEIGH        MOSUNNY   61  40  45 NE8       30.23S
ELIZABETH CITY SUNNY     61  43  51 N13       30.21R
AHOSKIE*         N/A     60  39  46 N9        30.23R
EDENTON*       SUNNY     63  45  51 N7        30.22R
CURRITUCK*     SUNNY     59  43  55 N13       30.21R
KILL DEVIL HLS NOT AVBL
MANTEO         SUNNY     57  44  62 NE15G22   30.20R
CAPE HATTERAS  SUNNY     59  46  62 VRB6G18   30.18R HAZE
TARBORO*       NOT AVBL
GOLDSBORO      SUNNY     62  41  46 NE12      30.19F
WASHINGTON     SUNNY     61  43  52 N8        30.22R
GREENVILLE     SUNNY     64  43  45 NE9       30.23R
NEW BERN       SUNNY     62  46  55 N8        30.22R
WILMINGTON     SUNNY     64  45  49 NE7       30.19F
$$

VAZ048-201600-
ELSEWHERE

CITY           SKY/WX    TMP DP  RH WIND       PRES   REMARKS
HARRISBURG PA  PTSUNNY   51  32  48 N9        30.25R
BALTIMORE      MOSUNNY   58  36  43 NW6       30.23S
ANNAPOLIS      SUNNY     55  34  45 N9        30.24R
ANDREWS AFB    SUNNY     58  36  43 N15       30.23R
PHILADELPHIA   MOSUNNY   52  31  44 N12       30.24R
HENDERSON NC   SUNNY     56  39  54 NE5       30.24S
GREENSBORO     MOSUNNY   61  42  49 CALM      30.24R
ROCKY MOUNT    SUNNY     62  41  46 NE8       30.23S
$$

VAZ100-201600-
MARINE

STATION/POSITION TIME  TEMP    WIND        PRES    WAVE   SWELL
                       AIR SEA DIR/SP/G            HT/PER HT/PER
                 (UTC) (F)     (DEG/KT/KT) (MB)    (FT/S) (FT/S)
CAPE MAY NJ      1448   47 40  310/  5/  6 1023.0R
LEWES DE         1448   45 42  320/  8/  9 1023.4R
OCEAN-CITY-INLET 1448   49 43   30/  6/  9 1023.4R
WACHAPREAGUE VA  1448   58 49   20/  7/ 10 1022.9R
THOMAS POINT MD  1500   51 40   30/ 12/ 12   N/A
GOOSES REEF MD   1500   48 42  350/  6/  6 1024.5    0
COVE POINT MD    1448   51     360/ 11/ 12 1024.3R
SOLOMONS ISLAND  1448   55 43  360/  6/  7   N/A
BISHOPS HEAD MD  1448   53 44   10/  8/ 10 1023.8R
PINEY POINT MD   1448           20/  4/  4   N/A
POTOMAC MD       1500   48 43  310/  4/  6 1023.1    0
CAMBRIDGE MD     1448   52 40  330/  4/  5 1022.8S
LEWISETTA VA     1448   55 45  350/  7/ 11 1023.6R
RAPPAHANNOCK LGT 1448          340/ 15/ 16 1023.8R
YORK RVR RNG VA  1448   53     360/ 13/ 15 1022.7R
YORKTOWN VA      1448   57 47  360/ 16/ 19 1023.2R
JAMESTOWN VA     1500   60 49  340/ 10/ 14   N/A     0
DOMINION TERM VA 1448   60      10/ 12/ 16 1023.5R
KIPTOPEKE VA     1448      45   10/ 11/ 18   N/A
CHES BAY BRIDGE  1448   49 47   20/  8/ 10 1023.3R
CAPE HENRY VA    1448   50     330/ 12/ 15   N/A
WILLOUBY STN VA  1448   57     360/ 14/ 16 1024.2R
S CRANEY ISL VA  1448   56      10/  9/ 12 1023.1R
CAPE HENRY BUOY  1442      47                N/A     1/ 8
OFFSHORE WE BUOY 1451      47                N/A     2/ 7
64NM E OF VA BCH 1450   52 51   10/ 14/ 16 1021.4R   3/ 4
DUCK PIER NC     1448   50 49   20/ 11/ 13   N/A
44100 DUCK FRF   1435      48                N/A     2/ 3
44056 DUCK FRF   1430      49                N/A     1/ 3
OREGON INLET NC  1442   53 51  360/ 13/ 18 1021.9R
HATTERAS NC      1448   54 57   10/ 14/ 17 1021.5R
DIAMOND SHLS NC  1450   59 64   20/ 16/ 21 1021.2R   3/ 4   2/ 7
CAPE LOOKOUT NC  1400   58      30/ 15/ 18 1021.0R
$$




USA.gov is the U.S. government's official web portal to all federal, state and local government web resources and services.